TimeCDT,TemperatureF,Dew PointF,Humidity,Sea Level PressureIn,VisibilityMPH,Wind Direction,Wind SpeedMPH,Gust SpeedMPH,PrecipitationIn,Events,Conditions,WindDirDegrees,DateUTC
12:15 AM,69.8,55.4,60,30.02,10.0,SE,9.2,-,N/A,Thunderstorm,Clear,140,2013-06-14 05:15:00
12:34 AM,68.0,55.4,64,30.03,10.0,SSE,9.2,-,N/A,,Clear,150,2013-06-14 05:34:00
12:55 AM,68.0,55.4,64,30.03,10.0,SSE,10.4,-,N/A,,Clear,150,2013-06-14 05:55:00
1:15 AM,69.8,55.4,60,30.03,10.0,SSE,10.4,-,N/A,,Clear,160,2013-06-14 06:15:00
1:34 AM,68.0,55.4,64,30.03,10.0,SSE,10.4,-,N/A,,Clear,160,2013-06-14 06:34:00
1:55 AM,66.2,55.4,68,30.01,10.0,SSE,10.4,-,N/A,,Clear,150,2013-06-14 06:55:00
2:15 AM,66.2,55.4,68,29.99,10.0,SE,9.2,-,N/A,,Clear,140,2013-06-14 07:15:00
2:34 AM,66.2,55.4,68,29.98,10.0,SE,8.1,-,N/A,,Clear,130,2013-06-14 07:34:00
2:55 AM,66.2,55.4,68,29.97,10.0,SE,9.2,-,N/A,,Clear,140,2013-06-14 07:55:00
3:15 AM,66.2,57.2,73,29.98,10.0,SSE,8.1,-,N/A,,Clear,160,2013-06-14 08:15:00
3:35 AM,66.2,57.2,73,29.97,10.0,SSE,10.4,-,N/A,,Clear,150,2013-06-14 08:35:00
3:55 AM,68.0,55.4,64,29.97,10.0,SE,9.2,-,N/A,,Clear,140,2013-06-14 08:55:00
4:14 AM,66.2,57.2,73,29.98,10.0,SSE,8.1,-,N/A,,Clear,150,2013-06-14 09:14:00
4:35 AM,66.2,57.2,73,29.97,10.0,SE,9.2,-,N/A,,Clear,130,2013-06-14 09:35:00
4:55 AM,66.2,57.2,73,29.96,10.0,SE,6.9,-,N/A,,Clear,130,2013-06-14 09:55:00
5:14 AM,64.4,57.2,77,29.96,10.0,ESE,5.8,-,N/A,,Clear,120,2013-06-14 10:14:00
5:35 AM,64.4,57.2,77,29.96,10.0,ESE,8.1,-,N/A,,Clear,120,2013-06-14 10:35:00
5:55 AM,64.4,57.2,77,29.95,10.0,ESE,6.9,-,N/A,,Scattered Clouds,120,2013-06-14 10:55:00
6:14 AM,64.4,57.2,77,29.96,10.0,SE,8.1,-,N/A,,Scattered Clouds,130,2013-06-14 11:14:00
6:35 AM,64.4,57.2,77,29.98,10.0,SE,8.1,-,N/A,,Clear,140,2013-06-14 11:35:00
6:55 AM,66.2,57.2,73,29.97,10.0,SE,10.4,-,N/A,,Clear,140,2013-06-14 11:55:00
7:14 AM,66.2,57.2,73,29.98,10.0,SSE,10.4,-,N/A,,Clear,150,2013-06-14 12:14:00
7:35 AM,68.0,57.2,68,29.99,10.0,SSE,12.7,-,N/A,,Clear,150,2013-06-14 12:35:00
7:55 AM,68.0,57.2,68,29.97,10.0,SE,12.7,-,N/A,,Clear,140,2013-06-14 12:55:00
8:15 AM,69.8,55.4,60,29.98,10.0,SSE,12.7,16.1,N/A,,Clear,150,2013-06-14 13:15:00
8:35 AM,71.6,55.4,57,29.98,10.0,SSE,16.1,-,N/A,,Scattered Clouds,150,2013-06-14 13:35:00
8:54 AM,71.6,55.4,57,29.98,10.0,SSE,17.3,20.7,N/A,,Mostly Cloudy,160,2013-06-14 13:54:00
9:15 AM,71.6,55.4,57,29.97,10.0,SSE,15.0,20.7,N/A,,Scattered Clouds,160,2013-06-14 14:15:00
9:35 AM,73.4,55.4,53,29.95,10.0,SSE,18.4,24.2,N/A,,Scattered Clouds,160,2013-06-14 14:35:00
9:54 AM,73.4,55.4,53,29.94,10.0,SSE,15.0,24.2,N/A,,Scattered Clouds,160,2013-06-14 14:54:00
10:15 AM,73.4,55.4,53,29.93,10.0,SSE,17.3,21.9,N/A,,Scattered Clouds,150,2013-06-14 15:15:00
10:35 AM,73.4,55.4,53,29.93,10.0,SSE,17.3,26.5,N/A,,Scattered Clouds,150,2013-06-14 15:35:00
10:55 AM,73.4,53.6,50,29.93,10.0,SSE,18.4,26.5,N/A,,Scattered Clouds,160,2013-06-14 15:55:00
11:15 AM,73.4,57.2,57,29.95,10.0,South,10.4,20.7,N/A,Rain,Light Rain,170,2013-06-14 16:15:00
11:35 AM,73.4,55.4,53,29.93,10.0,SSE,13.8,23.0,N/A,,Scattered Clouds,160,2013-06-14 16:35:00
11:55 AM,75.2,55.4,50,29.91,10.0,SE,17.3,23.0,N/A,,Clear,140,2013-06-14 16:55:00
12:15 PM,75.2,55.4,50,29.87,10.0,SE,19.6,24.2,N/A,,Clear,140,2013-06-14 17:15:00
12:34 PM,75.2,55.4,50,29.80,10.0,SE,23.0,27.6,N/A,,Clear,130,2013-06-14 17:34:00
12:55 PM,77.0,55.4,47,29.78,10.0,SE,32.2,40.3,N/A,,Clear,140,2013-06-14 17:55:00
1:15 PM,78.8,55.4,44,29.83,10.0,SSE,21.9,33.4,N/A,,Clear,160,2013-06-14 18:15:00
1:34 PM,78.8,53.6,42,29.86,10.0,South,24.2,31.1,N/A,,Clear,170,2013-06-14 18:34:00
1:55 PM,78.8,55.4,44,29.85,10.0,SSE,20.7,28.8,N/A,,Clear,160,2013-06-14 18:55:00
2:15 PM,78.8,53.6,42,29.85,10.0,South,18.4,26.5,N/A,,Clear,180,2013-06-14 19:15:00
2:34 PM,78.8,53.6,42,29.80,10.0,SSE,21.9,27.6,N/A,,Scattered Clouds,150,2013-06-14 19:34:00
2:55 PM,78.8,55.4,44,29.84,10.0,SSE,13.8,23.0,N/A,,Scattered Clouds,160,2013-06-14 19:55:00
3:15 PM,80.6,55.4,42,29.83,10.0,South,19.6,24.2,N/A,,Scattered Clouds,170,2013-06-14 20:15:00
3:34 PM,80.6,55.4,42,29.82,10.0,SSE,18.4,23.0,N/A,,Scattered Clouds,160,2013-06-14 20:34:00
3:55 PM,82.4,55.4,39,29.82,10.0,SSE,18.4,25.3,N/A,,Scattered Clouds,160,2013-06-14 20:55:00
4:14 PM,82.4,55.4,39,29.81,10.0,SSE,17.3,24.2,N/A,,Mostly Cloudy,160,2013-06-14 21:14:00
4:35 PM,82.4,55.4,39,29.81,10.0,South,13.8,23.0,N/A,,Mostly Cloudy,170,2013-06-14 21:35:00
4:55 PM,80.6,55.4,42,29.81,10.0,South,18.4,27.6,N/A,,Overcast,180,2013-06-14 21:55:00
5:14 PM,80.6,57.2,45,29.81,10.0,South,20.7,24.2,N/A,,Overcast,170,2013-06-14 22:14:00
5:35 PM,80.6,57.2,45,29.81,10.0,South,18.4,25.3,N/A,,Overcast,170,2013-06-14 22:35:00
5:55 PM,80.6,59.0,48,29.80,10.0,SSE,20.7,24.2,N/A,,Mostly Cloudy,160,2013-06-14 22:55:00
6:14 PM,78.8,60.8,54,29.79,10.0,SSE,16.1,-,N/A,,Mostly Cloudy,160,2013-06-14 23:14:00
6:35 PM,78.8,60.8,54,29.78,10.0,SSE,17.3,25.3,N/A,,Mostly Cloudy,160,2013-06-14 23:35:00
6:55 PM,78.8,60.8,54,29.78,10.0,SSE,15.0,20.7,N/A,,Mostly Cloudy,160,2013-06-14 23:55:00
7:14 PM,78.8,60.8,54,29.78,10.0,SSE,12.7,-,N/A,,Mostly Cloudy,150,2013-06-15 00:14:00
7:35 PM,78.8,62.6,57,29.78,10.0,SSE,15.0,-,N/A,,Mostly Cloudy,150,2013-06-15 00:35:00
7:54 PM,78.8,62.6,57,29.77,10.0,SSE,11.5,17.3,N/A,,Mostly Cloudy,150,2013-06-15 00:54:00
8:15 PM,77.0,62.6,61,29.77,10.0,SSE,11.5,17.3,N/A,,Mostly Cloudy,150,2013-06-15 01:15:00
8:35 PM,77.0,62.6,61,29.77,10.0,SSE,10.4,-,N/A,,Scattered Clouds,150,2013-06-15 01:35:00
8:54 PM,77.0,64.4,65,29.77,10.0,SSE,13.8,-,N/A,,Mostly Cloudy,150,2013-06-15 01:54:00
9:15 PM,77.0,64.4,65,29.77,10.0,SSE,12.7,-,N/A,,Mostly Cloudy,150,2013-06-15 02:15:00
9:35 PM,75.2,64.4,69,29.77,10.0,SSE,9.2,-,N/A,,Scattered Clouds,150,2013-06-15 02:35:00
9:55 PM,75.2,64.4,69,29.78,10.0,SSE,13.8,18.4,N/A,,Clear,150,2013-06-15 02:55:00
10:15 PM,75.2,64.4,69,29.79,10.0,SSE,11.5,-,N/A,,Scattered Clouds,150,2013-06-15 03:15:00
10:34 PM,75.2,64.4,69,29.80,10.0,SSE,12.7,-,N/A,,Scattered Clouds,160,2013-06-15 03:34:00
10:55 PM,75.2,64.4,69,29.81,10.0,South,12.7,19.6,N/A,,Scattered Clouds,170,2013-06-15 03:55:00
11:15 PM,75.2,64.4,69,29.81,10.0,South,16.1,19.6,N/A,,Clear,170,2013-06-15 04:15:00
11:34 PM,75.2,64.4,69,29.81,10.0,South,16.1,19.6,N/A,,Clear,170,2013-06-15 04:34:00
11:55 PM,73.4,64.4,73,29.83,10.0,WSW,9.2,-,N/A,,Scattered Clouds,240,2013-06-15 04:55:00